Regional Weather Roundup
Issued by NWS

Home | Current Version | Previous Version | Graphics & Text | Print | Product List | Glossary On
Versions: 1 2 3 4 5 6 7 8 9 10 11 12 13 14 15 16 17 18 19 20 21 22 23 24 25 26 27 28 29 30 31 32 33 34 35 36 37 38 39 40 41 42 43 44 45 46 47 48 49 50
000
ASUS43 KMPX 190310
RWRMN
WEATHER ROUNDUP FOR MINNESOTA
NATIONAL WEATHER SERVICE TWIN CITIES/CHANHASSEN MN
1000 PM CDT SAT APR 18 2015


NOTE: "FAIR" INDICATES FEW OR NO CLOUDS BELOW 12,000 FEET WITH NO
SIGNIFICANT WEATHER AND/OR OBSTRUCTIONS TO VISIBILITY. N/A MEANS
CURRENT SKY AND/OR WEATHER CONDITIONS ARE NOT AVAILABLE.

MNZ060>063-068>070-190400-
   Twin Cities Metro

CITY           SKY/WX    TMP DP  RH WIND       PRES   REMARKS
TWIN CITIES    CLOUDY    65  35  33 E14       29.90F
ST PAUL        CLOUDY    64  34  32 SE12      29.92F
CRYSTAL        CLOUDY    66  34  30 E9        29.89F
BLAINE         CLOUDY    63  36  36 E9        29.91F
LAKEVILLE      LGT RAIN  57  54  88 SE8       29.92S
EDEN PRAIRIE   LGT RAIN  60  55  83 S8        29.90S
SOUTH ST PAUL  CLOUDY    65  33  30 SE9       29.92S
LAKE ELMO      CLOUDY    61  36  39 E8        29.94F
$$
MNZ001>005-007-008-013>017-022>024-027-028-190400-
   Northwest Minnesota

CITY           SKY/WX    TMP DP  RH WIND       PRES   REMARKS
BEMIDJI        CLOUDY    55  32  42 SE9       29.92F
HALLOCK        CLOUDY    59  25  27 SE14      29.84F
ROSEAU         CLOUDY    55  27  33 SE8       29.89F
WARROAD        MOCLDY    48  34  57 SE7       29.90F
THIEF RVR FALL CLOUDY    57  30  35 E9        29.88F
CROOKSTON      CLOUDY    59  30  33 E6        29.86F
FOSSTON        CLOUDY    57  28  33 E7        29.88F
DETROIT LAKES  CLOUDY    61  30  31 SE13G18   29.88F
MOORHEAD       CLOUDY    63  30  29 SE9       29.84F
PARK RAPIDS    CLOUDY    59  33  37 E12       29.91S
MAHNOMEN       FAIR      60  31  33 SE8       29.86F
$$
MNZ006-009>011-018-025>026-190400-
   North Central Minnesota

CITY           SKY/WX    TMP DP  RH WIND       PRES   REMARKS
BAUDETTE       MOCLDY    53  21  28 SE10      29.93F
FLAG ISLAND    PTCLDY    50  25  37 SE7       29.90F
INTL FALLS     MOCLDY    50  16  25 SE12      29.97F
WASKISH        CLOUDY    54  27  35 E8        29.93F
BIG FORK       CLOUDY    50  28  43 SE9       29.98F
LONGVILLE      CLOUDY    50  32  50 E6        29.95S
GRAND RAPIDS   CLOUDY    45  25  45 SE9G18    29.98F
ORR            MOCLDY    46  21  36 CALM      29.98F
COOK           MOCLDY    46  25  42 SE7       30.01F
WALKER         FAIR      53  33  46 E10       29.93S
$$
MNZ012-019>021-037-190400-
   Northeast Minnesota

CITY           SKY/WX    TMP DP  RH WIND       PRES   REMARKS
DULUTH         FAIR      41  25  53 E13       30.02F
ELY            MOCLDY    43  18  36 E8        30.03F
HIBBING        CLOUDY    43  24  47 E10       30.00F
EVELETH        MOCLDY    41  25  52 E6        30.02F
DULUTH HARBOR  MOCLDY    39  34  81 NE22      30.05F
TWO HARBORS    PTCLDY    45  27  49 NE12G18   30.02F
SILVER BAY     PTCLDY    43  23  45 NE9G20    30.05F
GRAND MARAIS     N/A     44  22  41 NE16G23   30.11F
G MARAIS ARPRT PTCLDY    37  14  38 E13       30.09F
$$
MNZ029>031-032-039>041-046>048-054>057-064-190400-
   West Central Minnesota

CITY           SKY/WX    TMP DP  RH WIND       PRES   REMARKS
FERGUS FALLS   CLOUDY    63  28  27 SE12      29.86F
WHEATON        LGT RAIN  52  46  82 SE7       29.88F
MORRIS         LGT RAIN  54  48  82 E9        29.85F
ALEXANDRIA     LGT RAIN  54  45  71 E10       29.89F
ELBOW LAKE     LGT RAIN  54  48  81 SE12      29.87S
WADENA         CLOUDY    57  36  44 E9        29.89F
GLENWOOD       RAIN      54  45  71 E12       29.87F
APPLETON       RAIN      55  48  76 NE7       29.84S
BENSON         LGT RAIN  54  45  71 E8        29.84F
ORTONVILLE     LGT RAIN  55  54  94 NE3       29.84F
MADISON        LGT RAIN  55  54  94 CALM      29.83S
WILLMAR        LGT RAIN  55  52  88 E9        29.86F
$$
MNZ033>034-036-042>043-049>051-058-059-190400-
   Central Minnesota

CITY           SKY/WX    TMP DP  RH WIND       PRES   REMARKS
ST CLOUD       LGT RAIN  54  42  64 E8        29.91F
SAUK CENTRE    DRIZZLE   57  41  54 E13G21    29.89F
PAYNESVILLE    LGT RAIN  54  43  65 NE12G23   29.88F
AITKIN         CLOUDY    45  32  61 E8        29.95F
PINE RIVER     CLOUDY    48  34  57 E14G20    29.98S
BRAINERD       CLOUDY    48  32  53 E8        29.95S
STAPLES        CLOUDY    55  34  44 E7        29.91F
LONG PRAIRIE   DRIZZLE   52  41  66 E9        29.91F
LITTLE FALLS   LGT RAIN  52  37  58 E6        29.94R
LITCHFIELD     DRIZZLE   57  55  94 E8        29.87F
BUFFALO        CLOUDY    63  35  35 NE12      29.89F
MAPLE LAKE     CLOUDY    59  44  58 NE7       29.89F
$$
MNZ037-044-045-052-053-190400-
   East Central Minnesota

CITY           SKY/WX    TMP DP  RH WIND       PRES   REMARKS
PRINCETON      CLOUDY    54  46  76 NE7       29.93F
MORA           CLOUDY    45  32  61 E6        29.99S
CAMBRIDGE      RAIN      55  45  67 E7        29.94F
RUSH CITY      CLOUDY    56  36  48 NE3       29.98R
MOOSE LAKE     CLOUDY    36  32  87 CALM      29.98F
HINCKLEY       DRIZZLE   45  34  65 NE8       29.98F
CLOQUET        CLOUDY    39  27  60 E12G17    30.01F
MCGREGOR       CLOUDY    41  32  70 E9        29.99F
$$
MNZ071>073-080-081-089-090-097-098-190400-
   Southwest Minnesota

CITY           SKY/WX    TMP DP  RH WIND       PRES   REMARKS
MONTEVIDEO     LGT RAIN  55  55 100 E8        29.83F
GRANITE FALLS  LGT RAIN  56  55  96 NE8       29.84F
CANBY          RAIN      56  54  95 SE3       29.84F
MARSHALL       CLOUDY    55  52  88 SE8       29.82F
REDWOOD FALLS  LGT RAIN  57  55  93 E12       29.82F
OLIVIA         LGT RAIN  54  52  94 E9        29.83F
PIPESTONE      CLOUDY    55  54  94 S5        29.82S FOG
WINDOM         CLOUDY    57  55  94 E13       29.84R
WORTHINGTON    CLOUDY    54  52  94 SE8       29.84S
JACKSON        CLOUDY    55  54  94 SE7       29.85S FOG
TRACY          LGT RAIN  56  55  96 SE8       29.84S
SLAYTON        DRIZZLE   54  54 100 E8        29.84S
$$
MNZ065>067-074>077-082>085-091>093-190400-
   South Central Minnesota

CITY           SKY/WX    TMP DP  RH WIND       PRES   REMARKS
MANKATO        CLOUDY    57  50  77 SE16      29.87F
NEW ULM        RAIN      57  55  94 SE16      29.84F
ST JAMES       LGT RAIN  59  55  88 E16       29.85F
FAIRMONT       CLOUDY    57  52  82 SE18      29.84S
GLENCOE        DRIZZLE   59  57  94 E12       29.88S
FARIBAULT      LGT RAIN  55  54  94 E10       29.91F
OWATONNA       LGT RAIN  57  54  88 SE8       29.91F
ALBERT LEA     LGT RAIN  55  54  94 E10       29.90S
$$
MNZ078>079-086>088-094>096-190400-
   Southeast Minnesota

CITY           SKY/WX    TMP DP  RH WIND       PRES   REMARKS
ROCHESTER      LGT RAIN  55  49  80 E7        29.93F
RED WING       CLOUDY    64  28  25 SE13G21   29.93S
STANTON        RAIN      59  53  78 SE5       29.91F
DODGE CENTER   LGT RAIN  55  54  94 SE5       29.92F
WINONA         CLOUDY    61  30  31 SE13      29.94F
AUSTIN         LGT RAIN  55  52  88 E7        29.93R
PRESTON        CLOUDY    61  35  37 E8        29.92F
$$
ABBREVIATIONS USED IN REMARKS
   TC - TEMPERATURES IN CELSIUS
  WCI - WIND CHILL INDEX
   HX - HEAT INDEX
  VSB - VISIBILITY
$$



USA.gov is the U.S. government's official web portal to all federal, state and local government web resources and services.